This is the latest recevied weather packets stored in our database for station/object AI9F. If no packets are shown the sender has not sent any weather packets the latest 10 day(s).
| Time | Temp. | Humidity | Pressure | Rain* | Wind** | Luminosity | Snow |
|---|---|---|---|---|---|---|---|
| 1777053773 | 19.44° C | 79% | 1009 hPa | 0 mm | - | 271 W/m² | - |
| 1777053472 | 18.89° C | 79% | 1008.9 hPa | 0 mm | - | 199 W/m² | - |
| 1777053168 | 19.44° C | 79% | 1009 hPa | 0 mm | - | 76 W/m² | - |
| 1777052864 | 19.44° C | 79% | 1008.8 hPa | 0 mm | - | 79 W/m² | - |
| 1777052559 | 20° C | 78% | 1008.5 hPa | 0 mm | - | 68 W/m² | - |
| 1777052256 | 20° C | 77% | 1008.7 hPa | 0 mm | - | 70 W/m² | - |
| 1777051951 | 20° C | 75% | 1008.5 hPa | 0 mm | - | 134 W/m² | - |
| 1777051649 | 20° C | 75% | 1008.2 hPa | 0 mm | - | 207 W/m² | - |
| 1777051345 | 20° C | 75% | 1007.5 hPa | 0 mm | - | 170 W/m² | - |
| 1777051040 | 20° C | 74% | 1007.3 hPa | 0 mm | - | 164 W/m² | - |
| 1777050737 | 20° C | 76% | 1008 hPa | 0 mm | - | 204 W/m² | - |
| 1777050432 | 20° C | 73% | 1008 hPa | 0 mm | - | 196 W/m² | - |
| 1777050126 | 20.56° C | 75% | 1008.2 hPa | 0 mm | - | 218 W/m² | - |
| 1777049821 | 20° C | 74% | 1008.2 hPa | 0 mm | - | 214 W/m² | - |
| 1777049517 | 20° C | 75% | 1008.3 hPa | 0 mm | - | 225 W/m² | - |
| 1777049216 | 20° C | 76% | 1008.3 hPa | 0 mm | - | 195 W/m² | - |
| 1777048916 | 20° C | 75% | 1008.6 hPa | 0 mm | - | 211 W/m² | - |
| 1777048611 | 20° C | 77% | 1008.8 hPa | 0 mm | - | 254 W/m² | - |
| 1777048307 | 20° C | 77% | 1008.5 hPa | 0 mm | - | 308 W/m² | - |
| 1777048001 | 20° C | 77% | 1008.6 hPa | 0 mm | - | 282 W/m² | - |
| 1777047697 | 19.44° C | 79% | 1008.8 hPa | 0 mm | - | 271 W/m² | - |
| 1777047393 | 19.44° C | 78% | 1008.9 hPa | 0 mm | - | 181 W/m² | - |
| 1777047088 | 19.44° C | 77% | 1008.8 hPa | 0 mm | - | 128 W/m² | - |
| 1777046787 | 20° C | 78% | 1009 hPa | 0 mm | - | 164 W/m² | - |
| 1777046482 | 20° C | 78% | 1008.5 hPa | 0 mm | - | 230 W/m² | - |
* Rain latest hour (hover to see other rain measurements)
** Current wind speed in m/s (hover to see current wind gust speed)